This demonstration page uses our WeatherBlox Daily Observations layout. Learn more.

Hourly Observations for July 1, 2020

Temp ( °F °C ) Dew Point ( °F °C ) Humidity (%) Winds ( mph kmh ) Pressure ( in mb ) Visibility ( mi km ) Precip ( " mm )
12:15 am 00:15 Mostly Cloudy 72 22.2 60 15.8 67 67 NNE 13 20 29.72 1006 10 16.0934 0 0
12:35 am 00:35 Partly Cloudy 72 22 60 15.5 67 67 N 14 22 29.7 1006 10 16.0934 0 0
12:55 am 00:55 Clear 70 21.2 60 15.6 71 71 N 12 19 29.71 1006 10 16.0934 0 0
1:15 am 01:15 Clear 70 20.9 60 15.6 72 72 N 10 17 29.7 1006 10 16.0934 0 0
1:35 am 01:35 Clear 68 20.1 60 15.8 76 76 N 8 13 29.72 1006 10 16.0934 0 0
1:55 am 01:55 Clear 67 19.5 61 16 80 80 N 8 13 29.71 1006 10 16.0934 0 0
2:15 am 02:15 Clear 67 19.4 60 15.7 79 79 NNE 9 15 29.71 1006 10 16.0934 0 0
2:35 am 02:35 Clear 66 19.1 60 15.8 81 81 N 8 13 29.72 1006 10 16.0934 0 0
2:55 am 02:55 Clear 65 18.1 61 16 88 88 N 7 11 29.74 1007 10 16.0934 0 0
3:15 am 03:15 Clear 64 17.8 60 15.7 88 88 NNE 7 11 29.74 1007 10 16.0934 0 0
3:35 am 03:35 Clear 64 17.7 60 15.7 88 88 NNE 7 11 29.75 1007 10 16.0934 0 0
3:55 am 03:55 Clear 63 17.4 60 15.5 89 89 NNE 7 11 29.77 1008 10 16.0934 0 0
4:15 am 04:15 Clear 63 17.3 60 15.3 88 88 NNW 8 13 29.77 1008 10 16.0934 0 0
4:35 am 04:35 Clear 61 16.3 59 15 92 92 N 6 9 29.79 1009 10 16.0934 0 0
4:55 am 04:55 Clear 61 16.3 59 14.9 91 91 N 6 9 29.8 1009 10 16.0934 0 0
5:15 am 05:15 Clear 63 17.1 59 15.1 88 88 NNW 9 15 29.8 1009 10 16.0934 0 0
5:35 am 05:35 Clear 63 17.1 59 15 88 88 N 8 13 29.8 1009 10 16.0934 0 0
5:55 am 05:55 Clear 63 17.1 59 15 88 88 NNW 9 15 29.81 1010 10 16.0934 0 0
6:15 am 06:15 Sunny 63 17 59 15 88 88 NNW 8 13 29.81 1010 10 16.0934 0 0
6:35 am 06:35 Sunny 63 17 59 15 88 88 N 9 15 29.82 1010 10 16.0934 0 0
6:55 am 06:55 Sunny 63 17.1 59 14.9 87 87 NNW 9 15 29.84 1011 10 16.0934 0 0
7:15 am 07:15 Sunny 64 17.6 59 15 85 85 N 9 15 29.85 1011 10 16.0934 0 0
7:35 am 07:35 Sunny 65 18.2 59 15 82 82 N 10 17 29.85 1011 10 16.0934 0 0
7:55 am 07:55 Sunny 66 19 59 15 78 78 N 8 13 29.86 1011 10 16.0934 0 0
8:15 am 08:15 Sunny 67 19.7 59 15 74 74 NNE 9 15 29.86 1011 10 16.0934 0 0
8:35 am 08:35 Sunny 70 21.1 59 15.1 69 69 ENE 12 19 29.86 1011 10 16.0934 0 0
8:55 am 08:55 Sunny 71 21.7 58 14.7 65 65 NE 12 19 29.86 1011 10 16.0934 0 0
9:15 am 09:15 Sunny 73 23 57 14 57 57 ENE 15 24 29.85 1011 10 16.0934 0 0
9:35 am 09:35 Sunny 74 23.3 58 14.6 58 58 NE 14 22 29.86 1011 10 16.0934 0 0
9:55 am 09:55 Sunny 76 24.3 60 15.5 58 58 NE 10 17 29.85 1011 10 16.0934 0 0
10:15 am 10:15 Sunny 77 24.8 61 16 58 58 NE 14 22 29.85 1011 10 16.0934 0 0
10:35 am 10:35 Sunny 78 25.6 62 16.9 59 59 ENE 13 20 29.83 1010 10 16.0934 0 0
10:55 am 10:55 Sunny 80 26.5 62 16.7 55 55 E 10 17 29.82 1010 10 16.0934 0 0
11:15 am 11:15 Sunny 81 27 62 16.9 54 54 E 13 20 29.82 1010 10 16.0934 0 0
11:35 am 11:35 Sunny 82 27.5 62 16.4 51 51 ENE 12 19 29.83 1010 10 16.0934 0 0
11:55 am 11:55 Sunny 83 28.3 62 16.4 48 48 E 12 19 29.81 1010 10 16.0934 0 0
12:15 pm 12:15 Sunny 84 28.7 57 13.7 40 40 ENE 14 22 29.81 1009 10 16.0934 0 0
12:35 pm 12:35 Sunny 84 29.1 55 12.8 37 37 ENE 13 20 29.81 1010 10 16.0934 0 0
12:55 pm 12:55 Sunny 85 29.5 55 12.7 36 36 ENE 13 20 29.81 1010 10 16.0934 0 0
1:15 pm 13:15 Sunny 85 29.6 54 12 34 34 ENE 10 17 29.8 1009 10 16.0934 0 0
1:35 pm 13:35 Sunny 87 30.3 53 11.5 31 31 ENE 12 19 29.8 1009 10 16.0934 0 0
1:55 pm 13:55 Sunny 87 30.5 53 11.8 32 32 ENE 12 19 29.79 1009 10 16.0934 0 0
2:15 pm 14:15 Sunny 88 31 54 12.2 32 32 NE 10 17 29.79 1009 10 16.0934 0 0
2:35 pm 14:35 Sunny 88 30.9 53 11.6 30 30 E 13 20 29.79 1009 10 16.0934 0 0
2:55 pm 14:55 Sunny 89 31.4 51 10.5 28 28 ENE 14 22 29.79 1009 10 16.0934 0 0
3:15 pm 15:15 Sunny 89 31.4 53 11.4 29 29 E 10 17 29.79 1009 10 16.0934 0 0
3:35 pm 15:35 Sunny 89 31.5 52 11.2 29 29 ENE 12 19 29.79 1009 10 16.0934 0 0
3:55 pm 15:55 Sunny 88 31.2 51 10.7 28 28 ENE 12 19 29.78 1008 10 16.0934 0 0
4:15 pm 16:15 Sunny 89 31.4 51 10.7 28 28 NE 13 20 29.79 1009 10 16.0934 0 0
4:35 pm 16:35 Sunny 88 31.2 50 10 27 27 ENE 14 22 29.77 1008 10 16.0934 0 0
4:55 pm 16:55 Sunny 88 31.1 52 11.3 30 30 ENE 12 19 29.78 1008 10 16.0934 0 0
5:15 pm 17:15 Sunny 87 30.8 53 11.4 30 30 ENE 12 19 29.78 1009 10 16.0934 0 0
5:35 pm 17:35 Sunny 87 30.7 52 11 30 30 ENE 12 19 29.77 1008 10 16.0934 0 0
5:55 pm 17:55 Sunny 87 30.4 53 11.6 31 31 ENE 14 22 29.78 1009 10 16.0934 0 0
6:15 pm 18:15 Sunny 86 30.2 54 12.3 33 33 ENE 10 17 29.79 1009 10 16.0934 0 0
6:35 pm 18:35 Sunny 85 29.7 54 12.2 34 34 ENE 10 17 29.78 1008 10 16.0934 0 0
6:55 pm 18:55 Sunny 85 29.4 56 13.1 37 37 ENE 9 15 29.78 1009 10 16.0934 0 0
7:15 pm 19:15 Sunny 84 28.7 56 13.5 39 39 ENE 8 13 29.79 1009 10 16.0934 0 0
7:35 pm 19:35 Sunny 83 28.3 58 14.4 43 43 ENE 8 13 29.79 1009 10 16.0934 0 0
7:55 pm 19:55 Sunny 82 27.5 59 15.1 47 47 ENE 8 13 29.8 1009 10 16.0934 0 0
8:15 pm 20:15 Sunny 80 26.5 61 16 53 53 ENE 7 11 29.81 1009 10 16.0934 0 0
8:35 pm 20:35 Sunny 77 25.1 63 17.2 62 62 ENE 6 9 29.83 1010 10 16.0934 0 0
8:55 pm 20:55 Sunny 76 24.2 64 17.7 67 67 ENE 7 11 29.84 1011 10 16.0934 0 0
9:15 pm 21:15 Clear 74 23.2 64 18 73 73 ENE 7 11 29.85 1011 10 16.0934 0 0
9:35 pm 21:35 Clear 72 22.2 65 18.5 80 80 ENE 7 11 29.87 1011 10 16.0934 0 0
9:55 pm 21:55 Clear 71 21.8 65 18.1 80 80 ENE 8 13 29.87 1012 10 16.0934 0 0
10:15 pm 22:15 Clear 71 21.6 64 18 80 80 ENE 7 11 29.88 1012 10 16.0934 0 0
10:35 pm 22:35 Clear 69 20.8 64 18 84 84 ENE 6 9 29.9 1013 10 16.0934 0 0
10:55 pm 22:55 Clear 69 20.7 65 18.1 85 85 ENE 8 13 29.9 1013 10 16.0934 0 0
11:15 pm 23:15 Clear 70 21 65 18.1 84 84 E 6 9 29.9 1012 10 16.0934 0 0
11:35 pm 23:35 Clear 68 20 64 18 88 88 ENE 6 9 29.91 1013 10 16.0934 0 0
11:55 pm 23:55 Clear 68 20 65 18.2 89 89 NE 6 9 29.91 1013 10 16.0934 0 0

Powered by AerisWeather